BORDANYWX Weather Reports


time (UTC)temp
C
wind
direction
speed
KPH
gust
KPH
rain 1hr
cm
rain 24hr
cm
rain mn
cm
humidity
%
barometer
mb
20260504220928 13 187 11.3 11.3 0.00 0.00 0.00 48 1016.0
20260504215928 13 187 11.3 11.3 0.00 0.00 0.00 48 1016.0
20260504214928 13 187 11.3 11.3 0.00 0.00 0.00 48 1016.0
20260504213927 13 187 11.3 11.3 0.00 0.00 0.00 48 1016.0
20260504212925 13 187 11.3 11.3 0.00 0.00 0.00 48 1016.0
20260504211924 13 187 11.3 11.3 0.00 0.00 0.00 48 1016.0
20260504210924 13 187 11.3 11.3 0.00 0.00 0.00 48 1016.0
20260504205923 13 187 11.3 11.3 0.00 0.00 0.00 48 1016.0
20260504204923 14 187 11.3 11.3 0.00 0.00 0.00 48 1016.0
20260504203922 17 182 11.3 11.3 0.00 0.00 0.00 43 1016.0
20260504202922 17 182 11.3 11.3 0.00 0.00 0.00 43 1016.0
20260504201921 17 182 11.3 11.3 0.00 0.00 0.00 43 1016.0
20260504200921 17 182 11.3 11.3 0.00 0.00 0.00 43 1016.0
20260504195920 17 182 11.3 11.3 0.00 0.00 0.00 43 1016.0
20260504194915 17 182 11.3 11.3 0.00 0.00 0.00 43 1016.0
20260504193914 17 182 11.3 11.3 0.00 0.00 0.00 43 1016.0
20260504192914 17 182 11.3 11.3 0.00 0.00 0.00 43 1016.0
20260504191913 17 182 11.3 11.3 0.00 0.00 0.00 43 1016.0
20260504190913 17 182 11.3 11.3 0.00 0.00 0.00 43 1016.0
20260504185913 17 182 11.3 11.3 0.00 0.00 0.00 43 1016.0
20260504184912 17 182 11.3 11.3 0.00 0.00 0.00 43 1016.0
20260504183911 20 174 8.0 8.0 0.00 0.00 0.00 40 1016.0
20260504182910 20 174 8.0 8.0 0.00 0.00 0.00 40 1016.0
20260504181910 20 174 8.0 8.0 0.00 0.00 0.00 40 1016.0
20260504180909 20 174 8.0 8.0 0.00 0.00 0.00 40 1016.0
20260504175909 20 174 8.0 8.0 0.00 0.00 0.00 40 1016.0
20260504174909 20 174 9.7 9.7 0.00 0.00 0.00 40 1016.0
20260504173908 20 174 9.7 9.7 0.00 0.00 0.00 39 1016.0
20260504172908 22 169 9.7 11.3 0.00 0.00 0.00 33 1016.0
20260504171907 22 169 9.7 11.3 0.00 0.00 0.00 33 1016.0
20260504170907 23 169 9.7 11.3 0.00 0.00 0.00 34 1016.0
20260504150901 23 160 8.0 8.0 0.00 0.00 0.00 30 1016.0
20260504140858 23 160 8.0 8.0 0.00 0.00 0.00 30 1016.0
20260504081841 18 185 8.0 8.0 0.00 0.00 0.00 41 1019.0
20260504080841 18 185 8.0 8.0 0.00 0.00 0.00 41 1019.0
20260504045831 8 178 8.0 8.0 0.00 0.00 0.00 62 1019.0
20260504044831 8 178 8.0 8.0 0.00 0.00 0.00 62 1019.0
20260504043830 8 178 8.0 8.0 0.00 0.00 0.00 62 1019.0
20260504042829 8 178 8.0 8.0 0.00 0.00 0.00 62 1019.0
20260504041829 8 178 8.0 8.0 0.00 0.00 0.00 62 1019.0
20260504040828 8 178 8.0 8.0 0.00 0.00 0.00 62 1019.0
20260504035828 9 178 8.0 8.0 0.00 0.00 0.00 62 1019.0
20260504034827 9 178 8.0 8.0 0.00 0.00 0.00 62 1019.0
20260504033827 12 166 8.0 8.0 0.00 0.00 0.00 55 1019.0
20260504032826 12 166 8.0 8.0 0.00 0.00 0.00 55 1019.0
20260504031825 12 166 8.0 8.0 0.00 0.00 0.00 55 1019.0
20260504030825 12 166 8.0 8.0 0.00 0.00 0.00 55 1019.0
20260504025824 12 166 8.0 8.0 0.00 0.00 0.00 55 1019.0
20260504024824 12 166 8.0 8.0 0.00 0.00 0.00 55 1019.0
20260504023824 12 166 8.0 8.0 0.00 0.00 0.00 55 1019.0
20260504022823 12 166 8.0 8.0 0.00 0.00 0.00 55 1019.0
20260504021823 12 166 8.0 8.0 0.00 0.00 0.00 55 1019.0
20260504020822 12 166 8.0 8.0 0.00 0.00 0.00 55 1019.0
20260504015822 12 166 8.0 8.0 0.00 0.00 0.00 55 1019.0
20260504014821 12 166 8.0 8.0 0.00 0.00 0.00 55 1019.0
20260504013821 12 166 8.0 8.0 0.00 0.00 0.00 55 1019.0
20260504012821 12 166 8.0 8.0 0.00 0.00 0.00 55 1020.0
20260504011820 12 166 8.0 8.0 0.00 0.00 0.00 55 1020.0
20260504010820 12 166 8.0 8.0 0.00 0.00 0.00 55 1020.0
20260504005819 12 166 8.0 8.0 0.00 0.00 0.00 55 1020.0
20260504004819 12 166 8.0 8.0 0.00 0.00 0.00 55 1020.0
20260504003818 12 166 8.0 8.0 0.00 0.00 0.00 55 1020.0
20260504002818 12 166 8.0 8.0 0.00 0.00 0.00 55 1020.0
20260504001818 12 166 8.0 8.0 0.00 0.00 0.00 55 1020.0
20260504000817 12 166 8.0 8.0 0.00 0.00 0.00 55 1020.0
20260503235816 12 166 8.0 8.0 0.00 0.00 0.00 55 1020.0
20260503234816 12 166 8.0 8.0 0.00 0.00 0.00 55 1020.0
20260503233815 12 166 8.0 8.0 0.00 0.00 0.00 55 1020.0
20260503232815 12 166 8.0 8.0 0.00 0.00 0.00 55 1020.0
20260503231815 12 166 8.0 8.0 0.00 0.00 0.00 55 1020.0
20260503230814 12 166 8.0 8.0 0.00 0.00 0.00 55 1020.0
20260503225813 12 166 8.0 8.0 0.00 0.00 0.00 55 1020.0
20260503224813 12 166 8.0 8.0 0.00 0.00 0.00 55 1020.0
20260503223812 12 166 8.0 8.0 0.00 0.00 0.00 55 1020.0
20260503222812 12 166 8.0 8.0 0.00 0.00 0.00 55 1020.0
20260503221811 12 166 8.0 8.0 0.00 0.00 0.00 55 1020.0